Ypsilanti, MI

7:13 AM EDT on September 25, 2017 (GMT -0400)
Willow Run

Weather History for KYIP - January, 2013

Change the Weather History Date:

Wednesday, January 2, 2013

  Actual Average Record
Temperature  
Mean Temperature 18 °F -  
Max Temperature 26 °F 32 °F 55 °F (2000)
Min Temperature 10 °F 20 °F 1 °F (2001)
Degree Days  
Heating Degree Days 47    
Moisture  
Dew Point 11 °F    
Average Humidity 74    
Maximum Humidity 81    
Minimum Humidity 66    
Precipitation  
Precipitation 0.00 in - - ()
Sea Level Pressure  
Sea Level Pressure 30.15 in    
Wind  
Wind Speed 6 mph (SW)    
Max Wind Speed 12 mph    
Max Gust Speed -    
Visibility 10 miles    
Events      
Averages and records for this station are not official NWS values.
T = Trace of Precipitation, MM = Missing Value Source: NWS Daily Summary

Daily Weather History Graph

Daily Weather History Graph

Search for Another Location

Airport or City:

Trip Planner

Search our weather history database for the weather conditions in past years. The results will help you decide how hot, cold, wet, or windy it might be!

Date:

Astronomy

Jan. 02, 2013 Rise Set
Actual Time 8:03 AM EST 5:13 PM EST
Civil Twilight 7:31 AM EST 5:45 PM EST
Nautical Twilight 6:56 AM EST 6:20 PM EST
Astronomical Twilight 6:22 AM EST 6:54 PM EST
Moon 10:52 PM EST (1/2) 10:38 AM EST (1/2)
Length of Visible Light 10h 14m
Length of Day
9h 10m
Waning Gibbous, 75% of the Moon is Illuminated
Jan 2
Waning Gibbous
Jan 4
Last Quarter
Jan 11
New
Jan 18
First Quarter
Jan 26
Full

Hourly Weather History & Observations

Time (EST) Temp. Windchill Dew Point Humidity Pressure Visibility Wind Dir Wind Speed Gust Speed Precip Events Conditions
12:53 AM 12.9 °F 3.8 °F 5.0 °F 71% 30.11 in 10.0 mi WSW 5.8 mph - N/A   Partly Cloudy
1:50 AM 14.0 °F 3.9 °F 8.6 °F 79% 30.08 in 10.0 mi WSW 6.9 mph - N/A   Mostly Cloudy
1:53 AM 14.0 °F 5.1 °F 8.1 °F 77% 30.11 in 10.0 mi WSW 5.8 mph - N/A   Mostly Cloudy
2:31 AM 12.2 °F 2.9 °F 6.8 °F 79% 30.08 in 10.0 mi SW 5.8 mph - N/A   Scattered Clouds
2:53 AM 16.0 °F 7.4 °F 9.0 °F 74% 30.12 in 10.0 mi SW 5.8 mph - N/A   Partly Cloudy
3:06 AM 14.0 °F 5.1 °F 6.8 °F 73% 30.09 in 10.0 mi SW 5.8 mph - N/A   Mostly Cloudy
3:53 AM 16.0 °F 7.4 °F 9.0 °F 74% 30.12 in 10.0 mi WSW 5.8 mph - N/A   Overcast
4:53 AM 16.0 °F 8.8 °F 9.0 °F 74% 30.13 in 10.0 mi WSW 4.6 mph - N/A   Mostly Cloudy
5:00 AM 12.2 °F 6.1 °F 6.8 °F 79% 30.10 in 10.0 mi WSW 3.5 mph - N/A   Scattered Clouds
5:53 AM 10.9 °F 1.4 °F 6.1 °F 81% 30.14 in 10.0 mi SSW 5.8 mph - N/A   Clear
7:53 AM 10.9 °F -1.8 °F 6.1 °F 81% 30.16 in 10.0 mi SW 9.2 mph - N/A   Scattered Clouds
8:01 AM 10.4 °F -0.4 °F 5.0 °F 79% 30.12 in 10.0 mi SW 6.9 mph - N/A   Mostly Cloudy
8:08 AM 10.4 °F 0.8 °F 3.2 °F 73% 30.12 in 10.0 mi SW 5.8 mph - N/A   Scattered Clouds
8:53 AM 10.0 °F 1.8 °F 5.0 °F 80% 30.15 in 10.0 mi SSW 4.6 mph - N/A   Mostly Cloudy
9:53 AM 14.0 °F 5.1 °F 9.0 °F 80% 30.18 in 10.0 mi SSW 5.8 mph - N/A   Overcast
10:53 AM 18.0 °F 7.7 °F 10.9 °F 74% 30.21 in 10.0 mi SW 8.1 mph - N/A   Overcast
11:53 AM 21.9 °F 13.4 °F 12.9 °F 68% 30.20 in 10.0 mi SSW 6.9 mph - N/A   Overcast
12:53 PM 24.1 °F 15.2 °F 15.1 °F 69% 30.18 in 10.0 mi SSW 8.1 mph - N/A   Overcast
1:53 PM 25.0 °F 18.1 °F 16.0 °F 69% 30.18 in 10.0 mi SSW 5.8 mph - N/A   Overcast
2:53 PM 26.1 °F 19.4 °F 16.0 °F 66% 30.17 in 10.0 mi SSW 5.8 mph - N/A   Overcast
3:53 PM 26.1 °F 19.4 °F 17.1 °F 69% 30.17 in 10.0 mi South 5.8 mph - N/A   Overcast
4:53 PM 26.1 °F 17.6 °F 17.1 °F 69% 30.18 in 10.0 mi SSW 8.1 mph - N/A   Overcast
6:53 PM 25.0 °F 14.8 °F 17.1 °F 72% 30.22 in 10.0 mi SSW 10.4 mph - N/A   Overcast
7:53 PM 24.1 °F 13.1 °F 16.0 °F 71% 30.22 in 9.0 mi SSW 11.5 mph - N/A   Overcast
8:53 PM 24.1 °F 14.4 °F 16.0 °F 71% 30.21 in 8.0 mi SW 9.2 mph - N/A   Overcast
9:53 PM 24.1 °F 14.4 °F 16.0 °F 71% 30.20 in 8.0 mi SSW 9.2 mph - N/A   Overcast
10:53 PM 24.1 °F 13.7 °F 16.0 °F 71% 30.19 in 8.0 mi SSW 10.4 mph - N/A   Overcast